Regional Weather Roundup
Issued by NWS

Home | Current Version | Previous Version | Graphics & Text | Print | Product List | Glossary On
Versions: 1 2 3 4 5 6 7 8 9 10 11 12 13 14 15 16 17 18 19 20 21 22 23 24 25 26 27 28 29 30 31 32 33 34 35 36 37 38 39 40 41 42 43 44 45 46 47 48 49
000
ASUS45 KBOU 040510
RWRCO

WEATHER ROUNDUP FOR COLORADO
NATIONAL WEATHER SERVICE DENVER/BOULDER CO
1100 PM MDT FRI JUL 03 2015

NOTE: "FAIR" INDICATES FEW OR NO CLOUDS BELOW 12000 FEET WITH NO
SIGNIFICANT WEATHER AND/OR OBSTRUCTIONS TO VISIBILITY.

COZ001>005-013-030-031-040600-
...NORTHWEST COLORADO...

CITY           SKY/WX    TMP DP  RH WIND       PRES   REMARKS
CRAIG          PTCLDY    65  47  52 CALM      30.09R
HAYDEN         PTCLDY    68  39  34 E12       30.12R
MEEKER         MOCLDY    66  50  56 CALM      30.13R
MOUNT WERNER   NOT AVBL
STEAMBOAT SPGS PTCLDY    64  40  42 CALM      30.15S
WALDEN         PTCLDY    55  43  62 SE6       30.27S
$$

COZ006>008-011-040600-
...WEST CENTRAL VALLEYS...

CITY           SKY/WX    TMP DP  RH WIND       PRES   REMARKS
GRAND JUNCTION PTCLDY    80  49  33 SE17      29.97R
MONTROSE       CLEAR     71  48  43 SE8       30.11R
EAGLE          PTCLDY    68  48  49 CALM      30.16R
RIFLE          TSTM      70  53  54 VRB3      30.10R
DELTA          CLEAR     72  56  57 NE9       30.06S
NUCLA          CLEAR     68  50  52 SE3       30.17R
$$

COZ017>023-064>068-040600-
...SOUTHWEST COLORADO...

CITY           SKY/WX    TMP DP  RH WIND       PRES   REMARKS
DURANGO        CLOUDY    62  49  62 W6        30.23R
CORTEZ         MOCLDY    69  49  48 CALM      30.15S
PAGOSA SPRINGS CLOUDY    58  50  73 W3        30.31S
TELLURIDE      MOCLDY    54  48  80 E5        30.43R
WOLF CREEK PAS NOT AVBL
$$

COZ009-010-012-014-032>034-037-058>063-040600-
...CENTRAL COLORADO...

CITY           SKY/WX    TMP DP  RH WIND       PRES   REMARKS
ASPEN          PTCLDY    60  46  59 S8        30.25R
BUENA VISTA    PTCLDY    56  49  75 W7        30.35R
COPPER MTN     PTCLDY    54  41  62 S14G20    30.62S
BERTHOUD PASS  FAIR      43  32  65 E20G26    30.66S
COTTONWOOD PAS NOT AVBL
GUNNISON       PTCLDY    57  45  62 NW7       30.32S
KREMMLING      PTCLDY    64  39  39 CALM      30.24S
LEADVILLE      PTCLDY    51  45  79 CALM      30.46R
MONARCH PASS   PTCLDY    46  41  81 E3        30.72S
SALIDA         PTCLDY    62  51  67 CALM      30.39R
SUNLIGHT       CLOUDY    55  45  67 CALM      30.53S
WILKERSON PASS PTCLDY    50  39  66 W7        30.60F
$$

COZ069>075-040600-
...SAN LUIS VALLEY/SANGRE DE CRISTO MOUNTAINS...

CITY           SKY/WX    TMP DP  RH WIND       PRES   REMARKS
ALAMOSA        CLOUDY    58  50  75 SW5       30.31R
LA VETA PASS   MOCLDY    54  41  62 MISG      30.50S
SAGUACHE       MOCLDY    57  52  82 SE8       30.34R
$$

COZ035-036-038>040-040600-
...NORTHERN COLORADO FRONT RANGE...

CITY           SKY/WX    TMP DP  RH WIND       PRES   REMARKS
DENVER INTL AP PTCLDY    71  55  56 S14       30.11S
DMNS CITY PARK   N/A     70  56  59 S7        30.11F
AURORA         PTCLDY    68  55  62 S12       30.14S
FRONT RANGE AP NOT AVBL
ERIE MUNI ARPT PTCLDY    69  58  68 W5        30.09F
BOULDER MUN AP PTCLDY    72  55  56 W5        30.11F
CENTENNIAL     MOCLDY    68  54  60 S8        30.16R
BROOMFIELD     NOT AVBL
FORT COLLINS   PTCLDY    72  57  60 CALM      30.10F
LONGMONT       PTCLDY    70  58  66 N3        30.11F
$$

COZ041-046-047-076>085-087-088-040600-
...PIKES PEAK/PALMER DIVIDE AND SOUTHERN FOOTHILLS...

CITY           SKY/WX    TMP DP  RH WIND       PRES   REMARKS
COLO. SPRINGS  PTCLDY    63  56  78 N3        30.21S
A. F. ACADEMY  PTCLDY    58  57  97 N5        30.23R
ELLICOTT       PTCLDY   N/A N/A N/A N3        30.19S
FALCON         PTCLDY    60  54  80 W9        30.26S
FORT CARSON    PTCLDY    64  53  66 SW9       30.18S
LIMON          PTCLDY    68  58  70 SE16G25   30.15R
MONUMENT HILL  NOT AVBL
TRINIDAD       LGT RAIN  63  54  72 W13       30.19R
$$

COZ042>045-048>051-090-091-040600-
...NORTHEAST COLORADO...

CITY           SKY/WX    TMP DP  RH WIND       PRES   REMARKS
GREELEY ARPT   PTCLDY    70  61  73 E8        30.07F
AKRON          MOCLDY    68  58  70 SE13      30.09S
BURLINGTON     MOCLDY    67  60  78 SE12      30.10R
WRAY           PTCLDY    72  58  60 SE9       30.07R
STERLING       MOCLDY    72  59  64 SE14G20     N/A
HOLYOKE        PTCLDY    72  61  68 SE10      30.07R
FORT MORGAN    MOCLDY    68  57  66 E7        30.08S
$$

COZ086-089-092>099-040600-
...SOUTHEAST COLORADO...

CITY           SKY/WX    TMP DP  RH WIND       PRES   REMARKS
PUEBLO         PTCLDY    66  58  75 NW10      30.10R
LA JUNTA       CLOUDY    77  55  46 SW6       30.03F
LAMAR          PTCLDY    73  60  63 S10       30.03R
SPRINGFIELD      N/A     67  61  81 S18G25    30.11R
$$


USA.gov is the U.S. government's official web portal to all federal, state and local government web resources and services.